Regional Weather Roundup
Issued by NWS

Home | Current Version | Previous Version | Text Only | Print | Product List | Glossary Off
Versions: 1 2 3 4 5 6 7 8 9 10 11 12 13 14 15 16 17 18 19 20 21 22 23 24 25 26 27 28 29 30 31 32 33 34 35 36 37 38 39 40 41 42 43 44 45 46 47 48 49 50

000
ASUS45 KCYS 220410
RWRWY

WYOMING REGIONAL WEATHER ROUNDUP
NATIONAL WEATHER SERVICE CHEYENNE WY
1000 PM MDT SUN MAY 21 2017

NOTE:  "FAIR" INDICATES FEW OR NO CLOUDS BELOW 12,000 FEET
WITH NO SIGNIFICANT WEATHER AND/OR OBSTRUCTIONS TO VISIBILITY.

WYZ001-220500-
YELLOWSTONE NATIONAL PARK

CITY           SKY/WX    TMP DP  RH WIND       PRES   REMARKS
LK YELLOWSTONE   N/A     34  27  75 NW3       30.36R
W YELLOWSTONE  NOT AVBL

$$
WYZ002>013-054>058-071-098>099-220500-
NORTHERN WYOMING

CITY           SKY/WX    TMP DP  RH WIND       PRES   REMARKS
JACKSON        FAIR      45  27  49 CALM      30.28R
CODY           FAIR      51  34  52 CALM      30.24R
GREYBULL       FAIR      57  28  33 NW6       30.17R
WORLAND        FAIR      47  37  68 SW7       30.19R
SHERIDAN       FAIR      45  37  73 SE3       30.16S
BUFFALO        FAIR      44  34  67 SW8       30.20S
GILLETTE       FAIR      41  36  82 W8        30.17R
HULETT         FAIR      45  41  87 SW7       30.16S
NEWCASTLE      FAIR      46  37  71 CALM      30.18S

$$
WYZ014>020-022>026-101>103-220500-
CENTRAL WYOMING

CITY           SKY/WX    TMP DP  RH WIND       PRES   REMARKS
BIG PINEY      FAIR      43  36  76 SW3       30.31R
PINEDALE       FAIR      41  36  81 E3        30.32R
DUBOIS         FAIR      41  32  70 CALM      30.30R
LANDER         FAIR      48  38  68 SW13      30.24R
RIVERTON       FAIR      51  35  54 W5        30.25R
CASPER         FAIR      41  37  86 CALM      30.25R
DOUGLAS        CLOUDY    47  39  74 CALM      30.24R

$$
WYZ021-027>030-104>119-220500-
SOUTHERN WYOMING

CITY           SKY/WX    TMP DP  RH WIND       PRES   REMARKS
EVANSTON       FAIR      47  36  65 W6        30.30R
FORT BRIDGER   FAIR      48  38  69 S10       30.32R
ROCK SPRINGS   MOCLDY    46  36  68 S6        30.30R
DIXON            N/A     41  37  85 NE8       30.30R
RAWLINS        FAIR      44  37  76 CALM      30.29R
SARATOGA       DRIZZLE   41  41 100 SE8       30.30R
LARAMIE        CLOUDY    40  35  83 NW6       30.28R
CHEYENNE       FAIR      44  37  76 NW7       30.26R
TORRINGTON     CLOUDY    48  43  82 W7        30.20R
PINE BLUFFS    FAIR      46  41  81 NW8G16    30.23R

$$



USA.gov is the U.S. government's official web portal to all federal, state and local government web resources and services.